Simultaneous Nadir Overpasses (SNOs) Predictions

Prediction of SNOs between AQUA and GOES-15 Satellite Orbit:

Table of predicted SNOs for the next 14.0 days since TLE Epoch: 5/18/2018
Index Date Time (AQUA) AQUA Lat,Lon GOES-15 Lat,Lon Distance(km) Time Diff (sec)
1 05/18/2018 22:47:44 -0.59,-137.82 -0.05,-135.35 281.84 80
2 05/20/2018 22:35:32 0.06,-134.87 -0.05,-135.30 49.89 80
3 05/22/2018 22:23:19 0.66,-131.90 -0.06,-135.26 381.29 80
4 05/23/2018 10:44:34 0.43,-137.06 0.05,-135.22 209.33 80
5 05/25/2018 10:32:21 -0.17,-134.09 0.05,-135.17 121.79 80
6 05/25/2018 22:53:46 -0.90,-139.29 -0.03,-135.18 467.74 80
7 05/27/2018 10:20:08 -0.77,-131.13 0.05,-135.11 452.49 80
8 05/27/2018 22:41:33 -0.30,-136.33 -0.03,-135.12 137.18 80
9 05/29/2018 22:29:20 0.31,-133.36 -0.03,-135.06 192.79 80
10 05/30/2018 10:50:34 0.77,-138.52 0.01,-135.02 398.12 80
11 06/01/2018 10:38:21 0.16,-135.56 0.02,-134.96 68.82 80




NCC Satellite Simultaneous Nadir Overpasses (SNOs) Prediction Service
